Year,Month,Day,Hour,Minute,Value (Times are PST for insolation in W/m^2)
2009,10,01,00,00,0.00
2009,10,01,00,01,0.00
2009,10,01,00,02,0.00
2009,10,01,00,03,0.00
2009,10,01,00,04,0.00
2009,10,01,00,05,0.00
2009,10,01,00,06,0.00
2009,10,01,00,07,0.00
2009,10,01,00,08,0.00
2009,10,01,00,09,0.00
2009,10,01,00,10,0.00
2009,10,01,00,11,0.00
2009,10,01,00,12,0.00
2009,10,01,00,13,0.00
2009,10,01,00,14,0.00
2009,10,01,00,15,0.00
2009,10,01,00,16,0.00
2009,10,01,00,17,0.00
2009,10,01,00,18,0.00
2009,10,01,00,19,0.00
2009,10,01,00,20,0.00
2009,10,01,00,21,0.00
2009,10,01,00,22,0.00
2009,10,01,00,23,0.00
2009,10,01,00,24,0.00
2009,10,01,00,25,0.00
2009,10,01,00,26,0.00
2009,10,01,00,27,0.00
2009,10,01,00,28,0.00
2009,10,01,00,29,0.00
2009,10,01,00,30,0.00
2009,10,01,00,31,0.00
2009,10,01,00,32,0.00
2009,10,01,00,33,0.00
2009,10,01,00,34,0.00
2009,10,01,00,35,0.00
2009,10,01,00,36,0.00
2009,10,01,00,37,0.00
2009,10,01,00,38,0.00
2009,10,01,00,39,0.00
2009,10,01,00,40,0.00
2009,10,01,00,41,0.00
2009,10,01,00,42,0.00
2009,10,01,00,43,0.00
2009,10,01,00,44,0.00
2009,10,01,00,45,0.00
2009,10,01,00,46,0.00
2009,10,01,00,47,0.00
2009,10,01,00,48,0.00
2009,10,01,00,49,0.00
2009,10,01,00,50,0.00
2009,10,01,00,51,0.00
2009,10,01,00,52,0.00
2009,10,01,00,53,0.00
2009,10,01,00,54,0.00
2009,10,01,00,55,0.00
2009,10,01,00,56,0.00
2009,10,01,00,57,0.00
2009,10,01,00,58,0.00
2009,10,01,00,59,0.00
2009,10,01,01,00,0.00
2009,10,01,01,01,0.00
2009,10,01,01,02,0.00
2009,10,01,01,03,0.00
2009,10,01,01,04,0.00
2009,10,01,01,05,0.00
2009,10,01,01,06,0.00
2009,10,01,01,07,0.00
2009,10,01,01,08,0.00
2009,10,01,01,09,0.00
2009,10,01,01,10,0.00
2009,10,01,01,11,0.00
2009,10,01,01,12,0.00
2009,10,01,01,13,0.00
2009,10,01,01,14,0.00
2009,10,01,01,15,0.00
2009,10,01,01,16,0.00
2009,10,01,01,17,0.00
2009,10,01,01,18,0.00
2009,10,01,01,19,0.00
2009,10,01,01,20,0.00
2009,10,01,01,21,0.00
2009,10,01,01,22,0.00
2009,10,01,01,23,0.00
2009,10,01,01,24,0.00
2009,10,01,01,25,0.00
2009,10,01,01,26,0.00
2009,10,01,01,27,0.00
2009,10,01,01,28,0.00
2009,10,01,01,29,0.00
2009,10,01,01,30,0.00
2009,10,01,01,31,0.00
2009,10,01,01,32,0.00
2009,10,01,01,33,0.00
2009,10,01,01,34,0.00
2009,10,01,01,35,0.00
2009,10,01,01,36,0.00
2009,10,01,01,37,0.00
2009,10,01,01,38,0.00
2009,10,01,01,39,0.00
2009,10,01,01,40,0.00
2009,10,01,01,41,0.00
2009,10,01,01,42,0.00
2009,10,01,01,43,0.00
2009,10,01,01,44,0.00
2009,10,01,01,45,0.00
2009,10,01,01,46,0.00
2009,10,01,01,47,0.00
2009,10,01,01,48,0.00
2009,10,01,01,49,0.00
2009,10,01,01,50,0.00
2009,10,01,01,51,0.00
2009,10,01,01,52,0.00
2009,10,01,01,53,0.00
2009,10,01,01,54,0.00
2009,10,01,01,55,0.00
2009,10,01,01,56,0.00
2009,10,01,01,57,0.00
2009,10,01,01,58,0.00
2009,10,01,01,59,0.00
2009,10,01,02,00,0.00
2009,10,01,02,01,0.00
2009,10,01,02,02,0.00
2009,10,01,02,03,0.00
2009,10,01,02,04,0.00
2009,10,01,02,05,0.00
2009,10,01,02,06,0.00
2009,10,01,02,07,0.00
2009,10,01,02,08,0.00
2009,10,01,02,09,0.00
2009,10,01,02,10,0.00
2009,10,01,02,11,0.00
2009,10,01,02,12,0.00
2009,10,01,02,13,0.00
2009,10,01,02,14,0.00
2009,10,01,02,15,0.00
2009,10,01,02,16,0.00
2009,10,01,02,17,0.00
2009,10,01,02,18,0.00
2009,10,01,02,19,0.00
2009,10,01,02,20,0.00
2009,10,01,02,21,0.00
2009,10,01,02,22,0.00
2009,10,01,02,23,0.00
2009,10,01,02,24,0.00
2009,10,01,02,25,0.00
2009,10,01,02,26,0.00
2009,10,01,02,27,0.00
2009,10,01,02,28,0.00
2009,10,01,02,29,0.00
2009,10,01,02,30,0.00
2009,10,01,02,31,0.00
2009,10,01,02,32,0.00
2009,10,01,02,33,0.00
2009,10,01,02,34,0.00
2009,10,01,02,35,0.00
2009,10,01,02,36,0.00
2009,10,01,02,37,0.00
2009,10,01,02,38,0.00
2009,10,01,02,39,0.00
2009,10,01,02,40,0.00
2009,10,01,02,41,0.00
2009,10,01,02,42,0.00
2009,10,01,02,43,0.00
2009,10,01,02,44,0.00
2009,10,01,02,45,0.00
2009,10,01,02,46,0.00
2009,10,01,02,47,0.00
2009,10,01,02,48,0.00
2009,10,01,02,49,0.00
2009,10,01,02,50,0.00
2009,10,01,02,51,0.00
2009,10,01,02,52,0.00
2009,10,01,02,53,0.00
2009,10,01,02,54,0.00
2009,10,01,02,55,0.00
2009,10,01,02,56,0.00
2009,10,01,02,57,0.00
2009,10,01,02,58,0.00
2009,10,01,02,59,0.00
2009,10,01,03,00,0.00
2009,10,01,03,01,0.00
2009,10,01,03,02,0.00
2009,10,01,03,03,0.00
2009,10,01,03,04,0.00
2009,10,01,03,05,0.00
2009,10,01,03,06,0.00
2009,10,01,03,07,0.00
2009,10,01,03,08,0.00
2009,10,01,03,09,0.00
2009,10,01,03,10,0.00
2009,10,01,03,11,0.00
2009,10,01,03,12,0.00
2009,10,01,03,13,0.00
2009,10,01,03,14,0.00
2009,10,01,03,15,0.00
2009,10,01,03,16,0.00
2009,10,01,03,17,0.00
2009,10,01,03,18,0.00
2009,10,01,03,19,0.00
2009,10,01,03,20,0.00
2009,10,01,03,21,0.00
2009,10,01,03,22,0.00
2009,10,01,03,23,0.00
2009,10,01,03,24,0.00
2009,10,01,03,25,0.00
2009,10,01,03,26,0.00
2009,10,01,03,27,0.00
2009,10,01,03,28,0.00
2009,10,01,03,29,0.00
2009,10,01,03,30,0.00
2009,10,01,03,31,0.00
2009,10,01,03,32,0.00
2009,10,01,03,33,0.00
2009,10,01,03,34,0.00
2009,10,01,03,35,0.00
2009,10,01,03,36,0.00
2009,10,01,04,02,0.00
2009,10,01,04,03,0.00
2009,10,01,04,04,0.00
2009,10,01,04,05,0.00
2009,10,01,04,06,0.00
2009,10,01,04,07,0.00
2009,10,01,04,08,0.00
2009,10,01,04,09,0.00
2009,10,01,04,10,0.00
2009,10,01,04,11,0.00
2009,10,01,04,12,0.00
2009,10,01,04,13,0.00
2009,10,01,04,14,0.00
2009,10,01,04,15,0.00
2009,10,01,04,16,0.00
2009,10,01,04,17,0.00
2009,10,01,04,18,0.00
2009,10,01,04,19,0.00
2009,10,01,04,20,0.00
2009,10,01,04,21,0.00
2009,10,01,04,22,0.00
2009,10,01,04,23,0.00
2009,10,01,04,24,0.00
2009,10,01,04,25,0.00
2009,10,01,04,26,0.00
2009,10,01,04,27,0.00
2009,10,01,04,28,0.00
2009,10,01,04,29,0.00
2009,10,01,04,30,0.00
2009,10,01,04,31,0.00
2009,10,01,04,32,0.00
2009,10,01,04,33,0.00
2009,10,01,04,34,0.00
2009,10,01,04,35,0.00
2009,10,01,04,36,0.00
2009,10,01,04,37,0.00
2009,10,01,04,38,0.00
2009,10,01,04,39,0.00
2009,10,01,04,40,0.00
2009,10,01,04,41,0.00
2009,10,01,04,42,0.00
2009,10,01,04,43,0.00
2009,10,01,04,44,0.00
2009,10,01,04,45,0.00
2009,10,01,04,46,0.00
2009,10,01,04,47,0.00
2009,10,01,04,48,0.00
2009,10,01,04,49,0.00
2009,10,01,04,50,0.00
2009,10,01,04,51,0.00
2009,10,01,04,52,0.00
2009,10,01,04,53,0.00
2009,10,01,04,54,0.00
2009,10,01,04,55,0.00
2009,10,01,04,56,0.00
2009,10,01,04,57,0.00
2009,10,01,04,58,0.00
2009,10,01,04,59,0.00
2009,10,01,05,00,0.00
2009,10,01,05,01,0.00
2009,10,01,05,02,0.00
2009,10,01,05,03,0.00
2009,10,01,05,04,0.00
2009,10,01,05,05,0.00
2009,10,01,05,06,0.00
2009,10,01,05,07,0.00
2009,10,01,05,08,0.00
2009,10,01,05,09,0.00
2009,10,01,05,10,0.00
2009,10,01,05,11,0.00
2009,10,01,05,12,0.00
2009,10,01,05,13,0.00
2009,10,01,05,14,0.00
2009,10,01,05,15,0.00
2009,10,01,05,16,0.00
2009,10,01,05,17,0.00
2009,10,01,05,18,0.00
2009,10,01,05,19,0.00
2009,10,01,05,20,0.00
2009,10,01,05,21,0.00
2009,10,01,05,22,0.00
2009,10,01,05,23,0.00
2009,10,01,05,24,0.00
2009,10,01,05,25,0.00
2009,10,01,05,26,0.00
2009,10,01,05,27,0.00
2009,10,01,05,28,0.00
2009,10,01,05,29,0.00
2009,10,01,05,30,0.00
2009,10,01,05,31,0.00
2009,10,01,05,32,0.00
2009,10,01,05,33,0.00
2009,10,01,05,34,0.00
2009,10,01,05,35,0.00
2009,10,01,05,36,0.00
2009,10,01,05,37,0.00
2009,10,01,05,38,0.00
2009,10,01,05,39,0.00
2009,10,01,05,40,0.00
2009,10,01,05,41,0.00
2009,10,01,05,42,0.00
2009,10,01,05,43,0.00
2009,10,01,05,44,0.00
2009,10,01,05,45,0.00
2009,10,01,05,46,0.00
2009,10,01,05,47,0.00
2009,10,01,05,48,0.00
2009,10,01,05,49,0.00
2009,10,01,05,50,0.00
2009,10,01,05,51,0.00
2009,10,01,05,52,0.00
2009,10,01,05,53,0.00
2009,10,01,05,54,0.00
2009,10,01,05,55,0.00
2009,10,01,05,56,0.00
2009,10,01,05,57,0.00
2009,10,01,05,58,0.00
2009,10,01,05,59,0.00
2009,10,01,06,00,0.00
2009,10,01,06,01,0.00
2009,10,01,06,02,0.00
2009,10,01,06,03,0.00
2009,10,01,06,04,0.00
2009,10,01,06,05,0.00
2009,10,01,06,06,0.00
2009,10,01,06,07,0.00
2009,10,01,06,08,0.00
2009,10,01,06,09,0.00
2009,10,01,06,10,0.00
2009,10,01,06,11,0.00
2009,10,01,06,12,0.00
2009,10,01,06,13,0.00
2009,10,01,06,14,0.00
2009,10,01,06,15,0.00
2009,10,01,06,16,0.00
2009,10,01,06,17,0.00
2009,10,01,06,18,0.00
2009,10,01,06,19,0.00
2009,10,01,06,20,0.00
2009,10,01,06,21,0.00
2009,10,01,06,22,0.00
2009,10,01,06,23,0.00
2009,10,01,06,24,0.00
2009,10,01,06,25,0.00
2009,10,01,06,26,0.00
2009,10,01,06,27,0.00
2009,10,01,06,28,0.00
2009,10,01,06,29,0.00
2009,10,01,06,30,0.00
2009,10,01,06,31,0.00
2009,10,01,06,32,0.00
2009,10,01,06,33,0.00
2009,10,01,06,34,0.00
2009,10,01,06,35,0.00
2009,10,01,06,36,0.00
2009,10,01,06,37,0.00
2009,10,01,06,38,0.00
2009,10,01,06,39,0.00
2009,10,01,06,40,0.00
2009,10,01,06,41,0.00
2009,10,01,06,42,0.00
2009,10,01,06,43,0.00
2009,10,01,06,44,0.00
2009,10,01,06,45,0.00
2009,10,01,06,46,0.00
2009,10,01,06,47,0.00
2009,10,01,06,48,0.00
2009,10,01,06,49,0.00
2009,10,01,06,50,0.00
2009,10,01,06,51,0.00
2009,10,01,06,52,0.00
2009,10,01,06,53,0.00
2009,10,01,06,54,0.00
2009,10,01,06,55,0.00
2009,10,01,06,56,0.00
2009,10,01,06,57,0.00
2009,10,01,06,58,0.00
2009,10,01,06,59,0.00
2009,10,01,07,00,0.00
2009,10,01,07,01,0.00
2009,10,01,07,02,0.00
2009,10,01,07,03,0.00
2009,10,01,07,04,0.00
2009,10,01,07,05,0.00
2009,10,01,07,06,0.00
2009,10,01,07,07,0.00
2009,10,01,07,08,0.00
2009,10,01,07,09,0.00
2009,10,01,07,10,0.00
2009,10,01,07,11,0.00
2009,10,01,07,12,0.00
2009,10,01,07,13,0.00
2009,10,01,07,14,0.00
2009,10,01,07,15,0.00
2009,10,01,07,16,0.00
2009,10,01,07,17,0.00
2009,10,01,07,18,0.00
2009,10,01,07,19,0.00
2009,10,01,07,20,0.00
2009,10,01,07,21,2.40
2009,10,01,07,22,5.00
2009,10,01,07,23,5.00
2009,10,01,07,24,5.00
2009,10,01,07,25,5.00
2009,10,01,07,26,7.00
2009,10,01,07,27,7.00
2009,10,01,07,28,7.60
2009,10,01,07,29,9.00
2009,10,01,07,30,9.00
2009,10,01,07,31,10.30
2009,10,01,07,32,11.00
2009,10,01,07,33,9.30
2009,10,01,07,34,9.00
2009,10,01,07,35,9.00
2009,10,01,07,36,9.00
2009,10,01,07,37,9.70
2009,10,01,07,38,11.00
2009,10,01,07,39,11.60
2009,10,01,07,40,12.00
2009,10,01,07,41,12.00
2009,10,01,07,42,13.80
2009,10,01,07,43,14.20
2009,10,01,07,44,16.00
2009,10,01,07,45,16.50
2009,10,01,07,46,18.40
2009,10,01,07,47,20.00
2009,10,01,07,48,21.00
2009,10,01,07,49,22.50
2009,10,01,07,50,21.40
2009,10,01,07,51,22.70
2009,10,01,07,52,21.00
2009,10,01,07,53,20.60
2009,10,01,07,54,18.70
2009,10,01,07,55,18.00
2009,10,01,07,56,18.00
2009,10,01,07,57,18.00
2009,10,01,07,58,18.00
2009,10,01,07,59,18.00
2009,10,01,08,00,19.00
2009,10,01,08,01,19.30
2009,10,01,08,02,21.60
2009,10,01,08,03,23.80
2009,10,01,08,04,25.50
2009,10,01,08,05,27.10
2009,10,01,08,06,29.40
2009,10,01,08,07,31.60
2009,10,01,08,08,32.90
2009,10,01,08,09,35.40
2009,10,01,08,10,39.20
2009,10,01,08,11,40.60
2009,10,01,08,12,42.80
2009,10,01,08,13,45.00
2009,10,01,08,14,46.60
2009,10,01,08,15,48.40
2009,10,01,08,16,50.70
2009,10,01,08,17,51.00
2009,10,01,08,18,51.00
2009,10,01,08,19,51.00
2009,10,01,08,20,51.00
2009,10,01,08,21,50.10
2009,10,01,08,22,47.20
2009,10,01,08,23,44.60
2009,10,01,08,24,41.00
2009,10,01,08,25,39.10
2009,10,01,08,26,37.20
2009,10,01,08,27,38.60
2009,10,01,08,28,36.40
2009,10,01,08,29,34.20
2009,10,01,08,30,32.50
2009,10,01,08,31,32.00
2009,10,01,08,32,29.30
2009,10,01,08,33,28.00
2009,10,01,08,34,26.20
2009,10,01,08,35,28.00
2009,10,01,08,36,28.50
2009,10,01,08,37,30.90
2009,10,01,08,38,34.70
2009,10,01,08,39,39.60
2009,10,01,08,40,44.40
2009,10,01,08,41,46.80
2009,10,01,08,42,47.00
2009,10,01,08,43,47.00
2009,10,01,08,44,47.00
2009,10,01,08,45,47.00
2009,10,01,08,46,47.00
2009,10,01,08,47,47.90
2009,10,01,08,48,49.00
2009,10,01,08,49,49.00
2009,10,01,08,50,47.50
2009,10,01,08,51,47.00
2009,10,01,08,52,49.20
2009,10,01,08,53,51.40
2009,10,01,08,54,52.40
2009,10,01,08,55,50.20
2009,10,01,08,56,51.00
2009,10,01,08,57,57.20
2009,10,01,08,58,64.90
2009,10,01,08,59,69.40
2009,10,01,09,00,75.60
2009,10,01,09,01,79.20
2009,10,01,09,02,81.50
2009,10,01,09,03,83.00
2009,10,01,09,04,83.00
2009,10,01,09,05,81.90
2009,10,01,09,06,77.80
2009,10,01,09,07,72.80
2009,10,01,09,08,69.40
2009,10,01,09,09,63.20
2009,10,01,09,10,62.00
2009,10,01,09,11,62.90
2009,10,01,09,12,66.80
2009,10,01,09,13,73.00
2009,10,01,09,14,80.20
2009,10,01,09,15,87.90
2009,10,01,09,16,92.40
2009,10,01,09,17,94.90
2009,10,01,09,18,95.00
2009,10,01,09,19,94.60
2009,10,01,09,20,93.70
2009,10,01,09,21,95.00
2009,10,01,09,22,95.00
2009,10,01,09,23,99.40
2009,10,01,09,24,102.00
2009,10,01,09,25,102.00
2009,10,01,09,26,94.80
2009,10,01,09,27,82.50
2009,10,01,09,28,72.60
2009,10,01,09,29,69.00
2009,10,01,09,30,69.00
2009,10,01,09,31,70.80
2009,10,01,09,32,75.20
2009,10,01,09,33,82.50
2009,10,01,09,34,91.70
2009,10,01,09,35,112.70
2009,10,01,09,36,129.30
2009,10,01,09,37,134.00
2009,10,01,09,38,131.60
2009,10,01,09,39,121.00
2009,10,01,09,40,105.20
2009,10,01,09,41,93.00
2009,10,01,09,42,86.80
2009,10,01,09,43,86.00
2009,10,01,09,44,83.80
2009,10,01,09,45,83.20
2009,10,01,09,46,86.60
2009,10,01,09,47,91.00
2009,10,01,09,48,97.10
2009,10,01,09,49,103.40
2009,10,01,09,50,107.80
2009,10,01,09,51,113.20
2009,10,01,09,52,114.00
2009,10,01,09,53,114.00
2009,10,01,09,54,113.70
2009,10,01,09,55,112.20
2009,10,01,09,56,110.00
2009,10,01,09,57,104.80
2009,10,01,09,58,99.20
2009,10,01,09,59,98.00
2009,10,01,10,00,99.80
2009,10,01,10,01,107.70
2009,10,01,10,02,117.20
2009,10,01,10,03,130.20
2009,10,01,10,04,138.60
2009,10,01,10,05,141.60
2009,10,01,10,06,142.00
2009,10,01,10,07,142.00
2009,10,01,10,08,139.40
2009,10,01,10,09,141.20
2009,10,01,10,10,147.40
2009,10,01,10,11,157.00
2009,10,01,10,12,166.10
2009,10,01,10,13,172.90
2009,10,01,10,14,172.40
2009,10,01,10,15,164.80
2009,10,01,10,16,148.50
2009,10,01,10,17,135.00
2009,10,01,10,18,130.60
2009,10,01,10,19,134.00
2009,10,01,10,20,131.80
2009,10,01,10,21,125.40
2009,10,01,10,22,122.00
2009,10,01,10,23,115.80
2009,10,01,10,24,103.40
2009,10,01,10,25,96.00
2009,10,01,10,26,97.70
2009,10,01,10,27,101.80
2009,10,01,10,28,99.20
2009,10,01,10,29,96.30
2009,10,01,10,30,97.20
2009,10,01,10,31,101.10
2009,10,01,10,32,102.00
2009,10,01,10,33,104.20
2009,10,01,10,34,116.10
2009,10,01,10,35,136.60
2009,10,01,10,36,147.90
2009,10,01,10,37,140.00
2009,10,01,10,38,134.40
2009,10,01,10,39,135.00
2009,10,01,10,40,139.20
2009,10,01,10,41,151.10
2009,10,01,10,42,160.50
2009,10,01,10,43,153.90
2009,10,01,10,44,136.10
2009,10,01,10,45,125.60
2009,10,01,10,46,113.90
2009,10,01,10,47,108.20
2009,10,01,10,48,104.20
2009,10,01,10,49,111.60
2009,10,01,10,50,120.20
2009,10,01,10,51,116.80
2009,10,01,10,52,118.20
2009,10,01,10,53,124.30
2009,10,01,10,54,134.20
2009,10,01,10,55,142.10
2009,10,01,10,56,148.10
2009,10,01,10,57,151.90
2009,10,01,10,58,156.90
2009,10,01,10,59,165.50
2009,10,01,11,00,162.80
2009,10,01,11,01,159.60
2009,10,01,11,02,155.40
2009,10,01,11,03,153.00
2009,10,01,11,04,151.40
2009,10,01,11,05,149.00
2009,10,01,11,06,149.00
2009,10,01,11,07,145.60
2009,10,01,11,08,134.40
2009,10,01,11,09,121.20
2009,10,01,11,10,111.80
2009,10,01,11,11,104.20
2009,10,01,11,12,102.00
2009,10,01,11,13,104.20
2009,10,01,11,14,110.80
2009,10,01,11,15,116.80
2009,10,01,11,16,121.80
2009,10,01,11,17,123.00
2009,10,01,11,18,134.70
2009,10,01,11,19,142.00
2009,10,01,11,20,149.60
2009,10,01,11,21,158.70
2009,10,01,11,22,155.50
2009,10,01,11,23,151.00
2009,10,01,11,24,156.90
2009,10,01,11,25,160.00
2009,10,01,11,26,170.80
2009,10,01,11,27,168.40
2009,10,01,11,28,162.50
2009,10,01,11,29,150.90
2009,10,01,11,30,140.80
2009,10,01,11,31,141.50
2009,10,01,11,32,155.40
2009,10,01,11,33,174.00
2009,10,01,11,34,178.90
2009,10,01,11,35,171.70
2009,10,01,11,36,158.20
2009,10,01,11,37,145.20
2009,10,01,11,38,136.30
2009,10,01,11,39,139.90
2009,10,01,11,40,151.40
2009,10,01,11,41,152.40
2009,10,01,11,42,142.00
2009,10,01,11,43,126.50
2009,10,01,11,44,113.80
2009,10,01,11,45,107.40
2009,10,01,11,46,109.00
2009,10,01,11,47,107.00
2009,10,01,11,48,100.50
2009,10,01,11,49,91.60
2009,10,01,11,50,85.10
2009,10,01,11,51,85.60
2009,10,01,11,52,90.50
2009,10,01,11,53,102.30
2009,10,01,11,54,105.00
2009,10,01,11,55,104.70
2009,10,01,11,56,104.00
2009,10,01,11,57,104.00
2009,10,01,11,58,104.70
2009,10,01,11,59,111.80
2009,10,01,12,00,127.50
2009,10,01,12,01,130.00
2009,10,01,12,02,136.10
2009,10,01,12,03,172.50
2009,10,01,12,04,181.60
2009,10,01,12,05,197.20
2009,10,01,12,06,210.80
2009,10,01,12,07,218.90
2009,10,01,12,08,236.80
2009,10,01,12,09,255.40
2009,10,01,12,10,261.50
2009,10,01,12,11,254.80
2009,10,01,12,12,246.00
2009,10,01,12,13,249.60
2009,10,01,12,14,253.90
2009,10,01,12,15,251.80
2009,10,01,12,16,247.50
2009,10,01,12,17,246.00
2009,10,01,12,18,253.10
2009,10,01,12,19,261.70
2009,10,01,12,20,262.20
2009,10,01,12,21,273.20
2009,10,01,12,22,284.80
2009,10,01,12,23,308.10
2009,10,01,12,24,345.10
2009,10,01,12,25,423.80
2009,10,01,12,26,412.00
2009,10,01,12,27,388.00
2009,10,01,12,28,338.20
2009,10,01,12,29,302.60
2009,10,01,12,30,261.00
2009,10,01,12,31,214.50
2009,10,01,12,32,179.40
2009,10,01,12,33,161.30
2009,10,01,12,34,159.60
2009,10,01,12,35,172.60
2009,10,01,12,36,198.40
2009,10,01,12,37,186.20
2009,10,01,12,38,151.80
2009,10,01,12,39,126.80
2009,10,01,12,40,110.30
2009,10,01,12,41,95.60
2009,10,01,12,42,90.20
2009,10,01,12,43,92.60
2009,10,01,12,44,97.90
2009,10,01,12,45,101.40
2009,10,01,12,46,108.10
2009,10,01,12,47,111.00
2009,10,01,12,48,105.20
2009,10,01,12,49,90.80
2009,10,01,12,50,80.20
2009,10,01,12,51,76.20
2009,10,01,12,52,82.30
2009,10,01,12,53,95.70
2009,10,01,12,54,103.80
2009,10,01,12,55,113.10
2009,10,01,12,56,116.00
2009,10,01,12,57,108.50
2009,10,01,12,58,100.10
2009,10,01,12,59,94.20
2009,10,01,13,00,90.60
2009,10,01,13,01,86.30
2009,10,01,13,02,88.30
2009,10,01,13,03,90.80
2009,10,01,13,04,94.80
2009,10,01,13,05,102.10
2009,10,01,13,06,113.10
2009,10,01,13,07,127.10
2009,10,01,13,08,144.00
2009,10,01,13,09,171.80
2009,10,01,13,10,242.10
2009,10,01,13,11,303.20
2009,10,01,13,12,307.50
2009,10,01,13,13,286.40
2009,10,01,13,14,258.90
2009,10,01,13,15,233.00
2009,10,01,13,16,231.10
2009,10,01,13,17,237.90
2009,10,01,13,18,243.50
2009,10,01,13,19,249.40
2009,10,01,13,20,262.80
2009,10,01,13,21,265.70
2009,10,01,13,22,261.10
2009,10,01,13,23,236.50
2009,10,01,13,24,207.40
2009,10,01,13,25,179.80
2009,10,01,13,26,164.60
2009,10,01,13,27,156.10
2009,10,01,13,28,149.10
2009,10,01,13,29,136.80
2009,10,01,13,30,128.80
2009,10,01,13,31,125.20
2009,10,01,13,32,121.90
2009,10,01,13,33,125.90
2009,10,01,13,34,134.80
2009,10,01,13,35,138.80
2009,10,01,13,36,144.90
2009,10,01,13,37,155.00
2009,10,01,13,38,169.00
2009,10,01,13,39,189.40
2009,10,01,13,40,197.90
2009,10,01,13,41,191.60
2009,10,01,13,42,184.50
2009,10,01,13,43,183.00
2009,10,01,13,44,187.50
2009,10,01,13,45,187.70
2009,10,01,13,46,184.20
2009,10,01,13,47,173.40
2009,10,01,13,48,157.90
2009,10,01,13,49,151.00
2009,10,01,13,50,153.60
2009,10,01,13,51,152.00
2009,10,01,13,52,148.40
2009,10,01,13,53,144.20
2009,10,01,13,54,150.00
2009,10,01,13,55,159.20
2009,10,01,13,56,165.60
2009,10,01,13,57,172.40
2009,10,01,13,58,169.80
2009,10,01,13,59,165.60
2009,10,01,14,00,169.80
2009,10,01,14,01,180.00
2009,10,01,14,02,204.50
2009,10,01,14,03,237.00
2009,10,01,14,04,264.30
2009,10,01,14,05,285.60
2009,10,01,14,06,314.50
2009,10,01,14,07,304.70
2009,10,01,14,08,283.20
2009,10,01,14,09,345.80
2009,10,01,14,10,422.00
2009,10,01,14,11,366.50
2009,10,01,14,12,389.50
2009,10,01,14,13,386.60
2009,10,01,14,14,334.00
2009,10,01,14,15,427.00
2009,10,01,14,16,459.60
2009,10,01,14,17,446.00
2009,10,01,14,18,446.00
2009,10,01,14,19,441.00
2009,10,01,14,20,360.00
2009,10,01,14,21,304.00
2009,10,01,14,22,314.70
2009,10,01,14,23,336.00
2009,10,01,14,24,505.80
2009,10,01,14,25,570.70
2009,10,01,14,26,550.00
2009,10,01,14,27,709.00
2009,10,01,14,28,750.50
2009,10,01,14,29,940.00
2009,10,01,14,30,940.00
2009,10,01,14,31,940.00
2009,10,01,14,32,571.10
2009,10,01,14,33,289.00
2009,10,01,14,34,316.00
2009,10,01,14,35,316.00
2009,10,01,14,36,922.10
2009,10,01,14,37,954.00
2009,10,01,14,38,786.90
2009,10,01,14,39,367.00
2009,10,01,14,40,313.00
2009,10,01,14,41,330.80
2009,10,01,14,42,350.00
2009,10,01,14,43,510.00
2009,10,01,14,44,550.00
2009,10,01,14,45,550.00
2009,10,01,14,46,458.80
2009,10,01,14,47,185.00
2009,10,01,14,48,185.00
2009,10,01,14,49,185.00
2009,10,01,14,50,533.40
2009,10,01,14,51,721.00
2009,10,01,14,52,721.00
2009,10,01,14,53,701.20
2009,10,01,14,54,312.90
2009,10,01,14,55,244.00
2009,10,01,14,56,244.00
2009,10,01,14,57,317.40
2009,10,01,14,58,400.10
2009,10,01,14,59,443.00
2009,10,01,15,00,518.60
2009,10,01,15,01,521.20
2009,10,01,15,02,464.40
2009,10,01,15,03,402.00
2009,10,01,15,04,415.00
2009,10,01,15,05,395.40
2009,10,01,15,06,356.00
2009,10,01,15,07,359.80
2009,10,01,15,08,393.50
2009,10,01,15,09,437.60
2009,10,01,15,10,531.80
2009,10,01,15,11,577.00
2009,10,01,15,12,508.00
2009,10,01,15,13,306.20
2009,10,01,15,14,310.60
2009,10,01,15,15,297.40
2009,10,01,15,16,287.60
2009,10,01,15,17,278.20
2009,10,01,15,18,265.80
2009,10,01,15,19,246.30
2009,10,01,15,20,230.00
2009,10,01,15,21,207.70
2009,10,01,15,22,189.30
2009,10,01,15,23,181.10
2009,10,01,15,24,189.80
2009,10,01,15,25,210.30
2009,10,01,15,26,238.10
2009,10,01,15,27,244.00
2009,10,01,15,28,377.70
2009,10,01,15,29,417.80
2009,10,01,15,30,395.70
2009,10,01,15,31,346.00
2009,10,01,15,32,451.60
2009,10,01,15,33,538.00
2009,10,01,15,34,350.50
2009,10,01,15,35,299.00
2009,10,01,15,36,301.00
2009,10,01,15,37,306.20
2009,10,01,15,38,334.50
2009,10,01,15,39,330.00
2009,10,01,15,40,330.00
2009,10,01,15,41,333.30
2009,10,01,15,42,322.00
2009,10,01,15,43,313.60
2009,10,01,15,44,381.90
2009,10,01,15,45,420.00
2009,10,01,15,46,389.80
2009,10,01,15,47,272.60
2009,10,01,15,48,312.00
2009,10,01,15,49,397.50
2009,10,01,15,50,445.00
2009,10,01,15,51,445.00
2009,10,01,15,52,350.60
2009,10,01,15,53,319.50
2009,10,01,15,54,173.30
2009,10,01,15,55,155.50
2009,10,01,15,56,148.00
2009,10,01,15,57,151.00
2009,10,01,15,58,160.50
2009,10,01,15,59,176.70
2009,10,01,16,00,190.50
2009,10,01,16,01,192.20
2009,10,01,16,02,190.00
2009,10,01,16,03,187.20
2009,10,01,16,04,181.80
2009,10,01,16,05,182.30
2009,10,01,16,06,194.00
2009,10,01,16,07,200.00
2009,10,01,16,08,200.00
2009,10,01,16,09,253.60
2009,10,01,16,10,271.50
2009,10,01,16,11,272.60
2009,10,01,16,12,275.60
2009,10,01,16,13,220.50
2009,10,01,16,14,196.80
2009,10,01,16,15,188.70
2009,10,01,16,16,181.40
2009,10,01,16,17,179.00
2009,10,01,16,18,225.80
2009,10,01,16,19,238.20
2009,10,01,16,20,265.00
2009,10,01,16,21,296.80
2009,10,01,16,22,387.80
2009,10,01,16,23,400.20
2009,10,01,16,24,430.00
2009,10,01,16,25,405.40
2009,10,01,16,26,408.20
2009,10,01,16,27,430.90
2009,10,01,16,28,383.30
2009,10,01,16,29,341.00
2009,10,01,16,30,299.40
2009,10,01,16,31,188.60
2009,10,01,16,32,232.00
2009,10,01,16,33,238.80
2009,10,01,16,34,206.50
2009,10,01,16,35,216.40
2009,10,01,16,36,235.60
2009,10,01,16,37,239.60
2009,10,01,16,38,219.50
2009,10,01,16,39,215.20
2009,10,01,16,40,204.70
2009,10,01,16,41,208.40
2009,10,01,16,42,227.70
2009,10,01,16,43,219.30
2009,10,01,16,44,208.30
2009,10,01,16,45,222.60
2009,10,01,16,46,229.70
2009,10,01,16,47,245.80
2009,10,01,16,48,248.20
2009,10,01,16,49,241.00
2009,10,01,16,50,224.00
2009,10,01,16,51,216.80
2009,10,01,16,52,208.40
2009,10,01,16,53,216.80
2009,10,01,16,54,211.20
2009,10,01,16,55,229.00
2009,10,01,16,56,229.70
2009,10,01,16,57,229.30
2009,10,01,16,58,205.50
2009,10,01,16,59,192.00
2009,10,01,17,00,192.10
2009,10,01,17,01,181.10
2009,10,01,17,02,182.80
2009,10,01,17,03,183.40
2009,10,01,17,04,186.00
2009,10,01,17,05,183.20
2009,10,01,17,06,179.40
2009,10,01,17,07,184.90
2009,10,01,17,08,174.40
2009,10,01,17,09,168.50
2009,10,01,17,10,189.60
2009,10,01,17,11,193.90
2009,10,01,17,12,183.20
2009,10,01,17,13,174.50
2009,10,01,17,14,170.30
2009,10,01,17,15,170.40
2009,10,01,17,16,156.40
2009,10,01,17,17,146.00
2009,10,01,17,18,140.40
2009,10,01,17,19,135.40
2009,10,01,17,20,133.70
2009,10,01,17,21,131.20
2009,10,01,17,22,126.90
2009,10,01,17,23,125.00
2009,10,01,17,24,123.90
2009,10,01,17,25,123.00
2009,10,01,17,26,129.90
2009,10,01,17,27,126.10
2009,10,01,17,28,126.70
2009,10,01,17,29,122.70
2009,10,01,17,30,119.80
2009,10,01,17,31,114.20
2009,10,01,17,32,110.00
2009,10,01,17,33,107.80
2009,10,01,17,34,108.40
2009,10,01,17,35,107.50
2009,10,01,17,36,107.00
2009,10,01,17,37,105.40
2009,10,01,17,38,106.60
2009,10,01,17,39,104.10
2009,10,01,17,40,101.20
2009,10,01,17,41,98.40
2009,10,01,17,42,95.70
2009,10,01,17,43,92.00